Theta_e
332 333 330 329 326 327 327 325 325 325 325 324 324 326 326 326 326 327 328 328 328 328 327 327 326 325 325 327 327 325 325 327 326 327 327 327 328 327 325 324 325 323
332 333 331 330 327 326 327 327 327 325 325 325 325 325 325 324 325 327 327 326 326 325 325 326 325 325 325 325 325 323 322 323 322 322 324 325 325 324 323 322 320 319
333 332 330 328 326 327 326 327 327 325 324 324 327 325 323 325 325 325 325 323 322 322 323 324 325 325 325 325 324 322 322 322 322 323 322 321 321 321 321 320 319 319
331 332 330 330 328 327 326 325 325 324 325 323 324 324 324 324 325 324 323 322 320 320 320 320 321 322 322 323 322 320 321 320 320 320 319 319 320 320 320 320 320 320
329 331 330 330 330 329 328 325 323 322 322 322 324 323 323 323 322 320 321 321 320 318 319 318 319 320 320 320 319 318 318 317 318 319 318 319 320 321 321 322 321 321
328 329 329 330 330 328 327 324 321 321 322 323 322 321 322 322 319 319 320 319 319 317 317 317 317 317 318 318 318 317 316 316 317 317 316 316 317 320 319 322 321 319
325 327 329 329 329 329 327 324 322 321 322 324 321 321 321 320 319 319 318 319 318 317 316 317 317 318 319 319 317 317 316 316 316 315 314 316 318 319 318 320 318 318
327 327 328 329 328 329 328 324 322 321 323 323 323 321 321 319 318 319 319 318 317 317 317 316 317 317 318 319 318 318 318 319 318 316 316 316 318 317 319 318 319 317
328 328 329 329 328 328 328 324 322 323 324 323 323 322 321 320 319 319 318 318 318 318 317 317 317 317 319 318 318 318 318 319 319 318 317 317 317 316 316 317 317 317
329 329 329 329 328 327 329 327 324 325 323 324 323 324 321 321 320 319 318 318 318 318 318 317 317 319 319 317 316 316 317 318 318 318 318 317 316 315 315 316 317 316
329 328 328 327 327 329 330 328 326 325 324 321 323 323 324 323 320 320 318 318 319 317 317 318 318 318 318 318 320 319 317 318 318 317 318 318 318 317 318 317 317 318
328 328 328 327 326 326 327 329 328 325 325 325 323 320 322 324 322 320 319 317 317 317 317 318 317 318 318 318 319 320 320 319 319 319 319 319 319 319 317 318 318 319
327 327 328 327 327 327 328 328 328 327 325 323 324 323 321 321 322 321 320 320 318 318 317 318 318 318 318 318 318 319 320 319 320 320 319 320 319 319 319 319 320 320
328 329 329 329 329 329 328 329 329 328 327 325 324 324 323 321 320 321 322 321 320 319 319 319 319 318 318 319 318 319 320 320 320 321 321 321 322 320 321 321 320 320
329 330 329 329 327 328 328 327 328 327 327 326 324 323 324 323 322 321 321 320 320 321 320 320 321 320 320 320 320 320 321 321 321 321 321 321 321 322 323 323 322 322
327 328 327 328 328 328 325 328 327 328 327 326 325 324 323 323 322 322 321 321 320 320 321 322 323 323 323 313 315 322 324 324 324 324 323 324 323 323 324 324 325 324
325 325 326 325 327 327 326 326 324 326 326 327 327 326 324 324 324 324 323 322 322 322 322 325 325 324 303 305 306 311 322 325 325 325 325 324 324 324 323 324 324 324
325 325 324 325 325 325 324 325 325 325 325 326 327 328 326 326 325 324 324 325 325 324 324 327 328 309 299 301 304 305 311 326 326 325 326 325 325 324 325 325 322 321
322 324 324 325 326 325 325 326 325 326 326 325 324 327 326 325 326 325 325 327 327 325 325 326 328 301 300 299 300 300 301 310 324 325 324 324 324 323 324 325 323 321
317 319 319 321 324 326 326 325 325 325 327 327 327 325 325 323 324 325 326 325 324 325 324 325 324 302 299 298 298 297 298 302 323 323 323 322 323 323 325 324 324 324
314 315 316 317 318 320 322 324 325 326 326 326 326 326 324 323 322 321 324 324 324 323 322 319 321 298 298 298 298 296 295 297 321 324 324 324 325 325 325 324 323 323
314 313 314 314 316 318 318 318 320 323 325 326 326 326 326 325 324 323 321 320 321 322 320 318 320 299 297 297 296 295 294 315 319 323 323 323 320 322 322 323 322 322
313 313 313 313 314 314 314 317 318 320 322 325 324 324 323 323 323 322 322 320 319 322 319 321 321 304 296 296 295 294 298 318 319 322 321 319 320 318 317 318 315 315
311 311 312 312 313 313 314 315 316 318 319 322 322 322 321 322 322 322 323 324 323 321 319 319 318 306 294 295 294 293 304 318 318 317 319 318 317 316 318 316 309 300
309 310 311 311 311 312 314 314 316 316 317 319 319 320 319 321 321 321 323 323 324 323 317 318 319 306 293 294 293 293 304 319 317 316 314 314 315 315 315 314 310 303
307 308 309 310 311 312 313 313 314 315 316 318 319 318 317 318 319 320 321 322 323 322 322 320 320 315 301 293 294 295 297 317 319 316 315 314 315 312 312 313 310 306
Wind_Speed
6 6 7 6 6 5 5 4 4 4 3 3 4 4 4 4 4 4 4 3 4 4 4 4 4 5 4 4 5 6 6 6 5 5 6 6 6 5 5 5 4 4
6 6 6 6 6 6 5 4 4 4 4 3 4 5 5 5 4 4 5 5 4 5 4 5 5 4 4 4 5 5 5 5 5 4 5 6 5 6 6 5 4 2
6 6 7 7 7 7 6 5 5 5 4 4 5 5 5 5 5 5 5 5 5 5 5 4 4 4 5 5 4 5 5 5 6 6 6 6 6 5 5 5 5 4
4 5 5 7 8 8 7 6 6 5 5 5 5 6 5 5 5 6 6 5 5 5 5 5 4 4 5 5 5 5 5 5 6 5 5 5 5 5 5 4 4 5
7 4 5 6 7 7 6 6 7 7 6 6 6 6 6 6 6 7 6 6 5 6 5 6 5 5 4 4 5 5 5 5 4 4 5 5 5 5 5 5 6 6
8 6 5 6 6 6 6 6 7 7 7 7 6 6 6 7 6 7 6 6 6 6 6 6 6 5 5 5 5 5 5 5 5 6 6 5 6 5 5 5 6 6
8 11 7 6 7 6 6 7 7 8 7 6 6 6 6 6 6 7 7 6 7 6 6 6 6 6 5 5 5 5 5 6 6 6 6 6 5 6 6 5 6 7
12 10 8 6 6 6 6 7 7 7 7 7 6 6 7 7 7 6 6 7 7 7 7 7 7 7 6 6 6 6 6 5 5 6 7 7 5 6 5 4 4 5
8 7 7 7 7 6 7 7 7 8 7 7 6 6 7 6 7 7 7 7 7 7 7 7 7 7 6 6 7 7 6 5 5 6 7 6 5 6 6 5 4 4
6 7 8 7 7 6 7 7 8 7 8 7 6 6 6 6 7 7 7 7 7 7 7 7 7 7 7 7 8 7 7 6 6 6 5 5 5 6 6 5 5 4
7 7 8 8 7 6 6 6 7 7 7 8 7 7 6 5 7 7 7 8 7 8 8 7 7 8 8 7 7 6 7 7 7 6 5 5 5 4 5 5 5 4
6 7 8 8 7 8 8 6 6 7 8 8 8 8 8 6 7 7 7 8 8 9 9 8 8 8 8 8 8 7 7 6 6 6 6 5 5 4 5 4 5 5
7 6 6 7 7 6 5 7 7 8 8 9 8 8 8 8 7 7 7 8 9 9 9 10 10 9 8 8 9 8 7 7 6 7 6 5 6 5 6 5 5 5
6 6 5 5 5 5 6 6 7 8 8 8 8 9 8 9 9 8 8 8 9 9 9 9 9 9 10 10 9 8 8 8 7 7 7 6 5 6 6 6 6 7
5 4 4 4 5 5 4 6 6 7 8 8 8 7 7 8 8 9 8 9 9 9 9 8 9 9 8 9 9 10 9 8 8 8 7 8 7 7 6 5 6 6
4 4 4 4 4 5 6 6 7 8 7 8 8 8 8 8 9 10 10 10 10 10 9 8 8 7 6 9 6 9 9 8 7 8 8 7 8 7 7 7 6 6
3 3 3 4 4 3 4 7 8 7 7 7 7 8 6 5 7 10 10 10 11 10 11 9 8 4 9 7 4 5 9 8 8 8 8 7 7 7 6 5 2 6
3 1 2 3 4 4 5 3 3 4 4 5 5 5 4 6 8 10 10 8 8 9 10 8 7 8 10 9 6 4 3 6 8 8 8 7 6 7 7 6 6 3
2 2 2 2 1 3 3 4 4 4 4 4 7 6 5 9 8 7 8 8 7 9 8 9 7 11 10 9 8 9 7 4 6 7 7 7 6 7 5 1 3 6
2 2 2 1 2 3 2 3 4 4 4 4 4 5 6 4 9 11 9 9 9 10 9 6 5 9 12 10 8 10 9 5 7 6 7 7 6 4 4 3 2 3
5 4 3 3 2 2 2 3 4 4 5 5 5 6 6 7 5 10 9 6 6 4 3 5 3 5 11 14 12 10 9 4 6 6 6 5 5 5 5 5 5 4
4 3 3 3 3 2 3 4 4 5 6 6 6 7 7 6 7 5 6 9 10 7 4 6 7 13 15 15 13 12 10 7 8 8 7 5 4 6 5 4 5 6
5 5 4 4 4 4 5 4 4 4 5 6 7 7 8 8 8 8 8 10 11 7 8 7 8 10 16 15 14 13 9 8 9 8 6 7 8 5 3 3 6 7
6 7 6 5 5 5 5 5 5 5 5 5 6 7 8 8 8 9 10 10 8 7 9 9 9 10 14 14 13 14 12 10 9 8 7 7 6 6 5 5 7 7
8 7 7 7 7 7 5 6 6 6 7 6 7 6 7 7 8 9 9 9 7 8 7 5 6 7 13 14 14 14 12 9 8 8 6 6 6 7 6 6 6 7
7 8 7 7 7 7 7 6 6 7 8 8 7 8 8 8 8 8 9 8 8 8 8 9 8 5 10 14 15 14 15 9 6 4 5 5 6 7 7 8 7 6
Wind_Direction
163 156 149 149 148 143 152 141 140 158 137 141 128 131 111 92 86 89 111 126 118 106 78 73 73 77 92 83 76 74 72 69 73 71 69 61 69 78 72 66 65 69
188 163 155 150 138 143 138 139 140 142 134 136 126 115 111 117 117 117 107 114 113 104 102 89 89 96 99 90 77 86 90 85 87 88 89 94 95 76 67 71 73 74
180 168 160 150 136 135 139 144 143 138 144 128 120 120 125 126 122 119 120 110 105 100 96 103 95 88 90 104 99 92 92 81 69 59 58 57 62 72 80 73 70 73
238 175 161 139 135 144 151 151 143 138 133 139 145 131 136 135 128 122 117 118 112 109 107 110 118 110 105 105 108 100 96 87 80 89 98 93 77 79 83 90 83 77
280 187 159 140 141 151 151 152 149 141 146 145 140 150 144 141 143 138 134 124 121 119 118 112 109 110 118 109 99 104 97 100 109 102 97 95 91 97 96 90 90 87
283 256 160 152 154 156 164 161 148 143 144 151 156 160 156 153 153 148 143 146 136 129 131 128 125 123 117 117 117 112 121 108 109 121 115 113 122 120 109 102 96 92
214 240 192 171 169 169 167 161 151 146 153 156 162 166 162 170 156 158 156 153 152 153 141 137 132 128 130 128 127 122 109 118 127 121 117 107 102 102 110 115 95 91
216 206 193 176 174 180 173 161 157 155 154 163 170 164 176 173 166 156 159 164 160 154 148 146 145 136 139 135 123 122 122 127 126 121 110 114 126 112 92 83 103 106
202 192 185 180 178 184 177 160 162 158 161 163 177 166 180 180 160 168 165 166 161 157 157 151 150 145 138 133 131 134 135 129 128 116 122 127 130 133 135 122 122 115
192 187 190 180 186 189 178 171 165 166 164 168 177 177 180 183 162 178 173 167 168 166 158 162 150 151 152 148 148 142 139 138 127 132 138 147 147 156 137 150 144 146
189 183 190 194 190 181 172 183 179 173 172 177 175 181 186 183 173 188 178 177 173 174 167 168 160 161 161 157 148 158 153 147 155 149 159 159 161 149 147 161 150 169
174 178 190 195 193 196 178 196 197 193 180 189 178 184 186 185 189 191 188 183 185 181 175 173 173 171 167 165 161 164 160 161 165 158 165 172 159 165 170 175 172 177
176 182 189 195 197 205 201 189 199 200 194 192 185 191 188 188 189 199 195 195 193 190 183 181 176 177 177 174 171 172 170 171 167 170 174 181 175 185 181 179 197 191
173 175 189 194 197 203 200 192 197 200 202 197 189 193 196 197 192 200 200 209 200 197 190 188 181 182 180 179 179 178 173 175 178 173 184 177 186 195 187 192 199 202
142 153 168 188 193 186 201 194 209 200 201 205 200 201 192 206 203 201 202 210 211 200 196 188 190 189 183 182 180 177 177 180 181 184 187 186 183 201 199 203 211 210
127 140 166 172 187 168 194 222 211 200 201 206 208 214 206 207 216 213 210 208 215 203 204 194 196 203 155 174 191 174 180 181 181 194 196 199 202 201 202 218 223 228
111 137 160 178 160 211 201 191 208 220 211 217 219 220 226 243 238 221 218 218 218 208 205 197 200 168 115 109 90 173 183 185 184 191 193 205 212 222 219 190 293 328
109 126 165 161 188 183 195 208 209 217 223 222 228 221 206 240 240 238 227 221 224 218 208 197 206 125 148 138 156 186 245 199 190 194 193 197 203 214 222 213 163 135
128 141 147 160 195 195 190 226 221 216 224 222 232 237 213 230 232 273 262 226 215 228 220 212 212 147 170 172 174 193 216 270 203 200 196 201 204 210 223 234 161 178
49 50 2 109 174 201 222 222 230 232 235 240 237 239 240 267 254 236 236 236 227 231 233 238 246 162 169 179 192 204 212 226 227 206 210 207 206 195 184 182 145 132
353 22 3 22 340 299 236 242 243 240 230 230 235 237 239 236 248 256 250 283 277 261 253 279 341 167 195 186 195 197 213 227 233 216 214 216 205 197 184 187 185 141
354 2 331 326 323 301 275 258 241 239 238 233 238 242 232 216 231 235 240 241 259 253 254 246 238 196 198 190 182 193 193 202 217 216 205 184 211 186 186 200 201 185
352 334 348 311 305 304 294 283 269 257 243 236 237 240 250 233 223 228 225 218 222 216 228 234 243 202 193 182 181 183 187 210 220 214 202 203 203 157 170 69 37 28
338 332 333 333 312 293 293 293 288 277 271 243 244 249 245 249 251 249 247 244 217 199 219 222 218 182 187 180 180 183 196 213 224 221 201 173 160 173 147 109 71 26
327 327 320 317 314 304 306 301 290 280 272 272 261 248 250 252 246 248 246 244 226 203 206 182 230 165 180 175 184 188 200 221 217 202 195 191 167 152 144 136 114 59
308 308 310 307 306 308 301 295 289 285 276 266 262 258 257 249 240 242 241 245 241 212 201 204 207 186 184 181 184 192 202 215 184 171 148 179 174 166 160 147 129 102